Date String (YYYY-MM-DD hh:mm:ss) UTC,Instrument flags,Ambient pressure (hPa),Sample flow (lpm),Bypass flow (lpm),Sample temperature (°C),Ambient temperature (°C),ASC tube jacket temperature (°C),LED temperature (°C),Box temperature (°C),Sample RH (%),Span deviation,Mass concentration (μg/m³),Mass concentration (μg/m³),Mass concentration (μg/m³)
DateTimeUTC,F1_M11,P_M11,Q1_M11,Q2_M11,T1_M11,T2_M11,T3_M11,T4_M11,T5_M11,U1_M11,ZSPAN_M11,X0_M11,X2_M11,X1_M11
2021-09-24 18:00:00,,0833.1,4.99,0.00,29.8,27.9,00.0,39.0,31.5,16.4,0000.0,0018.79,0005.20,0003.87
2021-09-24 18:01:00,,0833.1,5.01,0.00,29.9,28.1,00.0,39.0,31.6,16.6,0000.0,0018.19,0005.22,0003.87
2021-09-24 18:02:00,,0833.1,4.99,0.00,29.9,28.4,00.0,39.0,31.6,16.6,0000.0,0018.23,0005.20,0003.87
2021-09-24 18:03:00,,0833.1,5.00,0.00,29.9,28.6,00.0,39.0,31.7,16.6,0000.0,0017.61,0005.22,0003.88
2021-09-24 18:04:00,,0833.1,5.00,0.00,29.9,28.8,00.0,39.0,31.7,16.5,0000.0,0017.52,0005.27,0003.90
2021-09-24 18:05:00,,0833.0,5.01,0.00,30.0,28.9,00.0,39.1,31.8,16.5,0000.0,0017.11,0005.27,0003.89
2021-09-24 18:06:00,,0833.0,5.00,0.00,30.0,29.0,00.0,39.1,31.9,16.4,0000.0,0016.42,0005.28,0003.89
2021-09-24 18:07:00,,0833.0,4.99,0.00,30.1,29.1,00.0,39.1,31.9,16.4,0000.0,0016.20,0005.27,0003.89
2021-09-24 18:08:00,,0833.0,5.01,0.00,30.1,29.2,00.0,39.1,32.0,16.3,0000.0,0015.84,0005.30,0003.90
2021-09-24 18:09:00,,0833.1,5.00,0.00,30.1,29.3,00.0,39.1,32.0,16.2,0000.0,0016.30,0005.38,0003.92
2021-09-24 18:10:00,,0833.0,4.99,0.00,30.2,29.3,00.0,39.1,32.0,16.1,0000.0,0016.24,0005.36,0003.93
2021-09-24 18:11:00,,0832.9,5.01,0.00,30.2,29.4,00.0,39.2,32.0,16.1,0000.0,0015.67,0005.35,0003.93
2021-09-24 18:12:00,,0832.8,4.99,0.00,30.2,29.5,00.0,39.2,32.1,16.1,0000.0,0015.19,0005.34,0003.95
2021-09-24 18:13:00,,0832.8,5.00,0.00,30.3,29.5,00.0,39.2,32.1,16.2,0000.0,0014.40,0005.33,0003.96
2021-09-24 18:14:00,,0832.8,5.00,0.00,30.3,29.3,00.0,39.2,32.1,16.1,0000.0,0015.00,0005.30,0003.96
2021-09-24 18:15:00,,0832.8,5.01,0.00,30.2,27.5,00.0,39.2,31.6,16.1,0000.0,0015.10,0005.23,0003.95
2021-09-24 18:16:00,,0832.8,4.99,0.00,30.0,26.1,00.0,39.2,31.3,16.2,0000.0,0015.43,0005.20,0003.95
2021-09-24 18:17:00,,0832.8,5.00,0.00,29.9,26.4,00.0,39.2,31.3,16.5,0000.0,0015.00,0005.14,0003.93
2021-09-24 18:18:00,,0832.8,5.00,0.00,29.9,26.8,00.0,39.1,31.3,16.6,0000.0,0015.55,0005.16,0003.92
2021-09-24 18:19:00,,0832.8,5.01,0.00,29.8,27.3,00.0,39.1,31.4,16.7,0000.0,0015.65,0005.15,0003.92
2021-09-24 18:20:00,,0832.9,4.99,0.00,29.8,27.7,00.0,39.0,31.5,16.6,0000.0,0015.76,0005.11,0003.91
2021-09-24 18:21:00,,0832.8,5.00,0.00,29.9,28.0,00.0,39.0,31.5,16.5,0000.0,0016.58,0005.15,0003.92
2021-09-24 18:22:00,,0832.8,4.99,0.00,29.9,28.3,00.0,39.0,31.6,16.6,0000.0,0016.22,0005.12,0003.92
2021-09-24 18:23:00,,0832.7,5.00,0.00,29.9,28.5,00.0,39.0,31.7,16.7,0000.0,0016.46,0005.11,0003.91
2021-09-24 18:24:00,,0832.8,5.01,0.00,29.9,28.7,00.0,39.0,31.7,16.7,0000.0,0016.66,0005.10,0003.91
2021-09-24 18:25:00,,0832.7,5.01,0.00,30.0,28.8,00.0,39.0,31.7,16.5,0000.0,0016.06,0005.18,0003.93
2021-09-24 18:26:00,,0832.7,5.00,0.00,30.0,29.0,00.0,39.0,31.8,16.4,0000.0,0016.04,0005.24,0003.94
2021-09-24 18:27:00,,0832.8,5.00,0.00,30.1,29.1,00.0,39.1,31.9,16.5,0000.0,0016.79,0005.32,0003.96
2021-09-24 18:28:00,,0832.8,5.01,0.00,30.1,29.2,00.0,39.1,31.9,16.5,0000.0,0017.50,0005.36,0003.97
2021-09-24 18:29:00,,0832.8,4.99,0.00,30.1,29.3,00.0,39.1,32.0,16.5,0000.0,0017.38,0005.36,0003.99
2021-09-24 18:30:00,,0832.8,4.99,0.00,30.2,29.3,00.0,39.1,32.0,16.3,0000.0,0017.76,0005.39,0004.02
2021-09-24 18:31:00,,0832.8,5.01,0.00,30.2,29.4,00.0,39.2,32.1,16.3,0000.0,0017.18,0005.39,0004.03
2021-09-24 18:32:00,,0832.8,5.00,0.00,30.3,29.5,00.0,39.2,32.1,16.3,0000.0,0016.07,0005.37,0004.05
2021-09-24 18:33:00,,0832.7,4.99,0.00,30.3,28.9,00.0,39.2,32.0,16.3,0000.0,0016.33,0005.40,0004.05
2021-09-24 18:34:00,,0832.7,5.00,0.00,30.1,26.8,00.0,39.2,31.5,16.5,0000.0,0015.82,0005.43,0004.06
2021-09-24 18:35:00,,0832.8,4.99,0.00,30.0,26.0,00.0,39.1,31.2,16.6,0000.0,0016.13,0005.42,0004.07
2021-09-24 18:36:00,,0832.7,5.00,0.00,29.9,26.4,00.0,39.1,31.3,16.7,0000.0,0016.41,0005.37,0004.07
2021-09-24 18:37:00,,0832.7,5.01,0.00,29.8,26.9,00.0,39.1,31.3,16.7,0000.0,0017.72,0005.39,0004.07
2021-09-24 18:38:00,,0832.7,4.99,0.00,29.8,27.3,00.0,39.0,31.4,16.7,0000.0,0017.34,0005.35,0004.07
2021-09-24 18:39:00,,0832.7,5.00,0.00,29.8,27.7,00.0,39.0,31.5,16.8,0000.0,0017.75,0005.35,0004.07
2021-09-24 18:40:00,,0832.7,5.00,0.00,29.8,28.1,00.0,39.0,31.5,16.8,0000.0,0018.50,0005.34,0004.06
2021-09-24 18:41:00,,0832.6,4.99,0.00,29.9,28.3,00.0,39.0,31.6,16.8,0000.0,0019.53,0005.36,0004.04
2021-09-24 18:42:00,,0832.6,5.01,0.00,29.9,28.5,00.0,39.0,31.7,16.8,0000.0,0019.50,0005.31,0004.02
2021-09-24 18:43:00,,0832.6,5.00,0.00,29.9,28.7,00.0,39.0,31.8,16.6,0000.0,0019.67,0005.32,0004.02
2021-09-24 18:44:00,,0832.7,4.99,0.00,30.0,28.9,00.0,39.0,31.8,16.6,0000.0,0019.85,0005.34,0004.02
2021-09-24 18:45:00,,0832.7,5.00,0.00,30.0,29.0,00.0,39.0,31.9,16.5,0000.0,0020.05,0005.37,0004.03
2021-09-24 18:46:00,,0832.7,5.00,0.00,30.0,29.1,00.0,39.0,31.9,16.5,0000.0,0020.57,0005.44,0004.04
2021-09-24 18:47:00,,0832.6,5.00,0.00,30.1,29.2,00.0,39.1,31.9,16.4,0000.0,0021.40,0005.47,0004.05
2021-09-24 18:48:00,,0832.6,5.00,0.00,30.1,29.3,00.0,39.1,32.0,16.5,0000.0,0021.05,0005.46,0004.04
2021-09-24 18:49:00,,0832.6,5.01,0.00,30.2,29.4,00.0,39.1,32.0,16.5,0000.0,0020.32,0005.45,0004.04
2021-09-24 18:50:00,,0832.6,4.99,0.00,30.2,29.4,00.0,39.1,32.1,16.4,0000.0,0019.77,0005.42,0004.03
2021-09-24 18:51:00,,0832.5,4.99,0.00,30.2,29.0,00.0,39.2,32.0,16.4,0000.0,0019.37,0005.45,0004.05
2021-09-24 18:52:00,,0832.6,5.01,0.00,30.1,26.9,00.0,39.1,31.4,16.4,0000.0,0018.20,0005.47,0004.08
2021-09-24 18:53:00,,0832.5,5.00,0.00,29.9,25.9,00.0,39.1,31.1,16.6,0000.0,0019.28,0005.55,0004.10
2021-09-24 18:54:00,,0832.4,5.00,0.00,29.8,26.2,00.0,39.1,31.2,16.8,0000.0,0018.89,0005.56,0004.10
2021-09-24 18:55:00,,0832.5,4.99,0.00,29.7,26.7,00.0,39.0,31.2,16.8,0000.0,0018.51,0005.54,0004.10
2021-09-24 18:56:00,,0832.4,5.00,0.00,29.7,27.1,00.0,39.0,31.3,16.9,0000.0,0018.37,0005.52,0004.11
2021-09-24 18:57:00,,0832.5,5.01,0.00,29.7,27.6,00.0,38.9,31.4,16.8,0000.0,0017.62,0005.47,0004.10
2021-09-24 18:58:00,,0832.5,4.99,0.00,29.7,27.9,00.0,38.9,31.4,16.8,0000.0,0016.63,0005.46,0004.09
2021-09-24 18:59:00,,0832.4,5.01,0.00,29.8,28.2,00.0,38.9,31.5,16.7,0000.0,0016.24,0005.48,0004.10
